[[{"header":{"parameterUnit":"m.s-1","parameterCategory":1,"la1":30.2991,"la2":30.254,"lo1":-89.0895,"lo2":-89.0444,"dy":0.0017,"dx":0.0017,"nx":28,"ny":28,"refTime":"2024-08-10T15:00:00:Z","depth":0,"parameterNumber":2,"parameterNumberName":"U-component_of_WINDS"},"data":[0,0,0,0,0,0,0,0,0,0,0,0,0,0,0,0,0,0,0,0,0,0,0,0,0,0,0,0,0,0,0,0,0,0,0,0,0,0,0,0,0,0,0,0,0,0,0,0,0,0,0,0,0,0,0,0,0,0,1.8068,1.8069,0,1.8172,1.8173,1.8174,1.8096,1.8092,1.8089,1.8085,1.8199,1.8205,1.8212,0,0,0,0,0,0,0,0,0,0,0,0,0,1.781,1.7815,1.8068,1.807,1.8071,1.8172,1.8173,1.8175,1.8096,1.8092,1.8088,1.8084,1.8197,1.8205,1.8212,0,0,0,0,0,0,0,0,0,0,0,0,0,1.7919,1.7817,1.8068,1.8044,1.8043,1.8172,1.8173,1.8175,1.8097,1.8092,1.8087,1.8082,1.8195,1.8204,1.8213,1.8374,0,0,1.8242,1.8246,0,0,0,0,0,0,0,0,1.7913,1.7929,1.8046,1.8046,1.8045,1.8115,1.8124,1.8242,1.8098,1.8077,1.8085,1.8079,1.8176,1.8187,1.8218,1.8379,1.8384,1.8243,1.8248,1.8252,1.8255,0,0,0,0,0,0,0,1.7906,1.7924,1.8109,1.8048,1.8047,1.803,1.804,1.8146,1.8154,1.8078,1.8073,1.8086,1.8175,1.8209,1.822,1.8386,1.8242,1.8251,1.8256,1.826,1.8688,1.8693,0,0,0,0,0,0,1.7899,1.7918,1.8106,1.8113,1.7964,1.8039,1.805,1.8098,1.8153,1.8156,1.809,1.8082,1.8195,1.8209,1.8224,1.8418,1.8252,1.8261,1.8266,1.8682,1.8689,1.8695,0,0,0,0,0,0,1.7894,1.7917,1.8102,1.8014,1.8036,1.8049,1.8104,1.8103,1.8137,1.8162,1.8163,1.8123,1.8192,1.821,1.8337,1.8421,1.8265,1.8274,1.8675,1.8684,1.8692,1.8806,0,0,0,0,0,0,1.7887,1.7915,1.7975,1.8016,1.8041,1.8212,1.8109,1.8109,1.8152,1.8142,1.8193,1.8197,1.8189,1.8324,1.8347,1.8431,1.8281,1.8668,1.8679,1.8689,1.8795,1.8818,1.8837,0,0,0,0,0,1.7878,1.8004,1.7978,1.8001,1.8115,1.8217,1.8232,1.8219,1.8159,1.8221,1.8237,1.8195,1.8407,1.8337,1.8362,1.8451,1.8663,1.8676,1.8689,1.8786,1.8813,1.8836,0,0,0,0,0,0,1.7975,1.8009,1.7981,1.8123,1.8168,1.8203,1.828,1.8248,1.8312,1.8301,1.8284,1.8296,1.843,1.8452,1.8374,1.861,1.8526,1.8544,1.8591,1.8617,1.8638,1.8631,1.8289,0,0,0,0,0,1.8013,1.809,1.8116,1.824,1.8263,1.8268,1.8312,1.8298,1.8344,1.8363,1.8389,1.8438,1.8515,1.8567,1.864,1.8797,1.8809,1.887,1.8891,1.8908,1.8925,1.9013,1.9041,1.8738,1.8738,1.8737,0,0,1.8092,1.812,1.817,1.826,1.8292,1.8376,1.8285,1.8376,1.8439,1.8378,1.8499,1.852,1.8573,1.8717,1.8781,1.874,1.9011,1.8924,1.8938,1.8946,1.9029,1.9058,1.9084,1.8747,1.8745,1.8744,0,0,1.828,1.8307,1.8414,1.8448,1.8498,1.8501,1.8526,1.8567,1.8578,1.8699,1.8656,1.8731,1.8864,1.8905,1.8943,1.9146,1.9112,1.9171,1.9281,1.9367,1.9391,1.9412,1.9488,1.9514,1.9187,1.9187,1.9188,0,1.8373,1.8494,1.8474,1.8569,1.8611,1.8557,1.8667,1.8701,1.8774,1.8806,1.8757,1.8924,1.8956,1.911,1.9159,1.9191,1.9223,1.9166,1.9388,1.9409,1.9429,1.9501,1.9529,1.9194,1.9194,1.9193,1.9192,0,1.8608,1.8693,1.8774,1.8843,1.8893,1.8995,1.8993,1.9047,1.9029,1.9037,1.9163,1.9199,1.9279,1.9313,1.9297,1.9466,1.9439,1.939,1.9305,1.9465,1.9533,1.956,1.9204,1.9202,1.92,1.9198,0,0,1.8862,1.8917,1.8948,1.8979,1.903,1.9097,1.9197,1.9273,1.9322,1.9373,1.946,1.9573,1.9529,1.9572,1.9559,1.9634,1.9797,1.9576,1.9577,1.9619,1.9988,2.0027,2.0059,1.9772,1.9777,1.9782,1.9985,0,1.9055,1.9227,1.9212,1.9377,1.9457,1.9406,1.9494,1.9537,1.9548,1.9619,1.9631,1.9714,1.9646,1.9673,1.9744,1.9762,1.9871,1.9746,1.9856,1.986,1.9847,2.0094,2.0135,2.0326,2.0011,2.0015,2.0018,0,1.9303,1.9361,1.9534,1.9573,1.9606,1.9685,1.9755,1.9822,1.987,1.9873,1.9921,1.9896,2.0001,1.9911,2.0057,1.9972,2.0016,2.0032,2.0039,2.0051,1.9952,2.0117,2.0385,2.0415,2.0059,2.0056,2.0053,0,1.9475,1.9596,1.9716,1.9744,1.9792,1.985,1.9873,1.9915,1.9963,2.0024,2.0055,2.0128,2.0169,2.0228,2.0225,2.0159,2.0374,2.0283,2.0382,2.0383,2.0432,2.043,2.0715,2.0455,2.0455,2.0454,2.0454,0,1.9693,1.9802,1.9794,1.9868,1.9988,1.997,2.0091,2.0108,2.0146,2.0225,2.0186,2.0261,2.025,2.0326,2.0324,2.0447,2.0465,2.0473,2.0472,2.0479,2.0478,2.051,2.0498,2.0462,2.046,2.0459,2.0457,0,1.9907,1.9906,2.0033,2.0068,2.0079,2.0167,2.0198,2.027,2.0276,2.0376,2.0399,2.041,2.0498,2.0499,2.0601,2.0599,2.075,2.0733,2.0734,2.0732,2.0832,2.0824,2.115,2.1194,2.0902,2.0905,2.0907,0,2.0049,2.013,2.0174,2.0222,2.0249,2.0327,2.0375,2.036,2.0412,2.0473,2.0538,2.0621,2.0687,2.083,2.085,2.0928,2.0914,2.1023,2.0925,2.093,2.0919,2.0916,2.0926,2.1043,2.1046,2.1049,2.1051,0,2.0301,2.0295,2.0364,2.0433,2.049,2.0544,2.0594,2.0637,2.0628,2.0688,2.0776,2.0827,2.093,2.1015,2.109,2.1117,2.1085,2.1081,2.1109,2.1118,2.1117,2.1122,2.0789,2.1074,2.1072,2.107,2.1069,2.1068,2.0485,2.0556,2.0598,2.0676,2.0711,2.0759,2.0828,2.0842,2.0914,2.0995,2.0982,2.1081,2.1129,2.1226,2.1259,2.1339,2.1301,2.1341,2.1351,2.1362,2.1374,2.1101,2.1352,2.1351,2.1351,2.135,2.135,0,2.0738,2.0761,2.0833,2.0903,2.0965,2.0925,2.0978,2.1034,2.1121,2.1166,2.1232,2.1334,2.1416,2.1441,2.1522,2.1581,2.1568,2.1603,2.16,2.1607,2.1402,2.1371,2.1611,2.1611,2.1611,2.1611,2.1611,2.1611,2.0877,2.0996,2.0996,2.1133,2.1156,2.1251,2.1286,2.1331,2.1367,2.1482,2.1549,2.1563,2.1602,2.1685,2.1759,2.1765,2.1798,2.1839,2.1839,2.1648,2.1621,2.1597,2.1568,2.1846,2.1846,2.2039,2.204,2.2042]},{"header":{"parameterUnit":"m.s-1","parameterCategory":1,"la1":30.2991,"la2":30.254,"lo1":-89.0895,"lo2":-89.0444,"dy":0.0017,"dx":0.0017,"nx":28,"ny":28,"refTime":"2024-08-10T15:00:00:Z","depth":0,"parameterNumber":3,"parameterNumberName":"V-component_of_WINDS"},"data":[0,0,0,0,0,0,0,0,0,0,0,0,0,0,0,0,0,0,0,0,0,0,0,0,0,0,0,0,0,0,0,0,0,0,0,0,0,0,0,0,0,0,0,0,0,0,0,0,0,0,0,0,0,0,0,0,0,0,-1.6353,-1.6352,0,-1.63,-1.63,-1.6299,-1.6318,-1.6319,-1.632,-1.6321,-1.626,-1.6257,-1.6254,0,0,0,0,0,0,0,0,0,0,0,0,0,-1.6464,-1.6462,-1.6353,-1.6352,-1.6352,-1.63,-1.63,-1.6299,-1.6318,-1.6319,-1.6321,-1.6322,-1.6261,-1.6257,-1.6254,0,0,0,0,0,0,0,0,0,0,0,0,0,-1.6414,-1.6461,-1.6353,-1.6355,-1.6355,-1.63,-1.63,-1.6299,-1.6317,-1.6319,-1.6321,-1.6323,-1.6262,-1.6258,-1.6254,-1.6192,0,0,-1.6241,-1.6239,0,0,0,0,0,0,0,0,-1.6416,-1.6409,-1.6356,-1.6355,-1.6354,-1.6318,-1.6316,-1.6263,-1.6317,-1.6331,-1.6321,-1.6324,-1.6277,-1.6272,-1.6258,-1.6189,-1.6186,-1.6241,-1.6238,-1.6236,-1.6235,0,0,0,0,0,0,0,-1.642,-1.6412,-1.6332,-1.6355,-1.6354,-1.6356,-1.6351,-1.6306,-1.6294,-1.633,-1.6331,-1.6325,-1.6277,-1.6262,-1.6256,-1.6186,-1.6241,-1.6237,-1.6235,-1.6233,-1.6063,-1.6061,0,0,0,0,0,0,-1.6425,-1.6415,-1.6334,-1.633,-1.6391,-1.6353,-1.6347,-1.6327,-1.6295,-1.6292,-1.6324,-1.6326,-1.6268,-1.6261,-1.6254,-1.6179,-1.6236,-1.6233,-1.623,-1.6065,-1.6062,-1.606,0,0,0,0,0,0,-1.6427,-1.6417,-1.6336,-1.6373,-1.6363,-1.6349,-1.6327,-1.6325,-1.631,-1.629,-1.6288,-1.6311,-1.6269,-1.626,-1.6208,-1.6177,-1.6231,-1.6227,-1.6067,-1.6064,-1.6061,-1.6028,0,0,0,0,0,0,-1.643,-1.6418,-1.6396,-1.6372,-1.6361,-1.6292,-1.6325,-1.6323,-1.6304,-1.6307,-1.6277,-1.6274,-1.627,-1.6214,-1.6204,-1.6172,-1.6224,-1.607,-1.6066,-1.6062,-1.6032,-1.6025,-1.6018,0,0,0,0,0,-1.6434,-1.6387,-1.6395,-1.6385,-1.6333,-1.629,-1.6283,-1.6281,-1.6301,-1.6278,-1.6265,-1.6275,-1.6183,-1.6208,-1.6197,-1.6164,-1.6072,-1.6067,-1.6062,-1.6035,-1.6026,-1.6018,0,0,0,0,0,0,-1.6404,-1.6384,-1.6392,-1.6337,-1.6315,-1.6293,-1.6264,-1.6272,-1.6242,-1.6246,-1.6243,-1.6236,-1.6182,-1.6168,-1.6197,-1.6102,-1.613,-1.6123,-1.6113,-1.6104,-1.6097,-1.6101,-1.622,0,0,0,0,0,-1.6392,-1.6361,-1.6344,-1.6297,-1.6286,-1.6277,-1.6258,-1.6259,-1.6235,-1.6225,-1.6209,-1.6184,-1.6149,-1.6126,-1.6093,-1.6031,-1.6024,-1.6003,-1.5996,-1.599,-1.5983,-1.5948,-1.5938,-1.6045,-1.6045,-1.6045,0,0,-1.6365,-1.635,-1.633,-1.6291,-1.6274,-1.624,-1.6269,-1.6231,-1.6205,-1.6219,-1.6169,-1.6156,-1.6128,-1.607,-1.6044,-1.6057,-1.5953,-1.5984,-1.598,-1.5976,-1.5942,-1.5932,-1.5923,-1.6042,-1.6042,-1.6043,0,0,-1.6298,-1.6285,-1.6243,-1.6227,-1.6203,-1.6197,-1.6187,-1.6164,-1.6157,-1.6108,-1.6117,-1.6085,-1.6026,-1.6005,-1.5987,-1.5913,-1.592,-1.5903,-1.5865,-1.5831,-1.5822,-1.5815,-1.5787,-1.5777,-1.5896,-1.5896,-1.5896,0,-1.6266,-1.6218,-1.6221,-1.6183,-1.6164,-1.6179,-1.6135,-1.6119,-1.6083,-1.6069,-1.6086,-1.6012,-1.5994,-1.5931,-1.5913,-1.5898,-1.5885,-1.5905,-1.5824,-1.5816,-1.5809,-1.5782,-1.5772,-1.5894,-1.5894,-1.5895,-1.5895,0,-1.6179,-1.6145,-1.6115,-1.6083,-1.6062,-1.6021,-1.6016,-1.5993,-1.5997,-1.5989,-1.5937,-1.5917,-1.5879,-1.5865,-1.5867,-1.5802,-1.5811,-1.5826,-1.5853,-1.5797,-1.5772,-1.5761,-1.5891,-1.5892,-1.5892,-1.5893,0,0,-1.609,-1.6063,-1.6051,-1.6037,-1.6012,-1.5984,-1.5944,-1.591,-1.589,-1.5866,-1.583,-1.5781,-1.5795,-1.5774,-1.5773,-1.5744,-1.5685,-1.5762,-1.5761,-1.5747,-1.561,-1.5598,-1.5586,-1.5691,-1.5689,-1.5687,-1.5612,0,-1.6019,-1.5952,-1.5954,-1.5889,-1.5857,-1.587,-1.5835,-1.5815,-1.5806,-1.5776,-1.5766,-1.573,-1.5752,-1.574,-1.5711,-1.5698,-1.5657,-1.5704,-1.5655,-1.5653,-1.566,-1.5573,-1.556,-1.549,-1.5602,-1.5601,-1.56,0,-1.5928,-1.5903,-1.5836,-1.5816,-1.5802,-1.5771,-1.574,-1.5712,-1.5688,-1.5685,-1.5662,-1.5667,-1.5624,-1.5655,-1.5594,-1.5626,-1.5606,-1.5597,-1.5594,-1.5587,-1.5621,-1.5562,-1.5467,-1.5456,-1.5584,-1.5586,-1.5587,0,-1.5867,-1.5817,-1.577,-1.5758,-1.5734,-1.5711,-1.57,-1.5678,-1.5658,-1.5631,-1.5617,-1.5584,-1.5565,-1.5539,-1.5533,-1.5557,-1.5472,-1.5503,-1.5465,-1.5465,-1.5444,-1.5445,-1.5343,-1.5436,-1.5436,-1.5436,-1.5436,0,-1.5787,-1.5745,-1.5743,-1.5714,-1.5667,-1.5669,-1.5621,-1.5612,-1.5593,-1.556,-1.557,-1.5539,-1.5535,-1.5503,-1.5498,-1.5448,-1.544,-1.5433,-1.5432,-1.5431,-1.5432,-1.5416,-1.542,-1.5433,-1.5434,-1.5435,-1.5435,0,-1.571,-1.5707,-1.5657,-1.5639,-1.5634,-1.56,-1.5583,-1.5554,-1.5548,-1.5507,-1.5498,-1.5487,-1.5449,-1.5442,-1.5397,-1.5394,-1.5333,-1.5338,-1.5341,-1.5341,-1.5303,-1.5306,-1.5185,-1.5169,-1.5275,-1.5274,-1.5273,0,-1.5658,-1.5626,-1.5606,-1.5586,-1.5574,-1.5542,-1.5522,-1.5523,-1.5501,-1.5473,-1.5447,-1.5411,-1.5382,-1.532,-1.5307,-1.5272,-1.5274,-1.5235,-1.5269,-1.5269,-1.5271,-1.5272,-1.5268,-1.5227,-1.5226,-1.5225,-1.5224,0,-1.5565,-1.5565,-1.5538,-1.5509,-1.5486,-1.5463,-1.5441,-1.5423,-1.5421,-1.5396,-1.5359,-1.5337,-1.5292,-1.5255,-1.522,-1.5206,-1.5213,-1.5214,-1.5203,-1.52,-1.5203,-1.5199,-1.5321,-1.5216,-1.5217,-1.5218,-1.5218,-1.5218,-1.5497,-1.5469,-1.5451,-1.5419,-1.5404,-1.5383,-1.5356,-1.5347,-1.5317,-1.5282,-1.5284,-1.5243,-1.5219,-1.5175,-1.5158,-1.5124,-1.5137,-1.5121,-1.5117,-1.5112,-1.5108,-1.5211,-1.5118,-1.5118,-1.5119,-1.5119,-1.5119,0,-1.5403,-1.5392,-1.5363,-1.5334,-1.5309,-1.5322,-1.5299,-1.5276,-1.524,-1.5219,-1.5191,-1.5148,-1.5112,-1.5097,-1.5062,-1.5037,-1.504,-1.5028,-1.5028,-1.5024,-1.51,-1.5112,-1.5026,-1.5026,-1.5026,-1.5026,-1.5026,-1.5026,-1.5351,-1.5304,-1.5303,-1.5248,-1.5237,-1.5199,-1.5184,-1.5165,-1.5148,-1.51,-1.5072,-1.5063,-1.5044,-1.5008,-1.4975,-1.4971,-1.4957,-1.4942,-1.494,-1.501,-1.5019,-1.5028,-1.5039,-1.494,-1.494,-1.4867,-1.4866,-1.4866]}]]